Location: ??????
(56.0120°N, 39.1740°E)
Time: 11:00:15
(UTC+00:00)

RESURS DK-1 - Pass Details

Date: 14 April 2026
Orbit: 524 x 530 km, 69.9° (Epoch: 10 May)

Event Time Altitude Azimuth Distance (km) Brightness Sun altitude
Exits shadow 18:42:37 33° 115° (ESE) 910 2.9 -16.4°
Maximum altitude 18:42:38 33° 115° (ESE) 910 2.9 -16.4°
Drops below altitude 10° 18:46:11 10° 51° (NE) 1,779 4.9 -16.7°
Sets 18:48:31 0° 42° (NE) 2,674 5.9 -16.9°
